Tracking 19146 objects as of 23-Apr-2018
HD Live streaming from Space Station
objects crossing your sky now

FENGYUN 1C DEB

Track FENGYUN 1C DEB now!
10-day predictions


NORAD ID: 30903
Int'l Code: 1999-025AYR
Perigee: 841.5 km
Apogee: 984.5 km
Inclination: 99.4 °
Period: 103.1 minutes
Semi major axis: 7284 km
RCS: 0.016 m2 (small)
Launch date: May 10, 1999
Source: People's Republic of China (PRC)
Launch site: Taiyaun Space Center, China (TSC)

Note: This is SATELLITE DEBRIS
aabbcc
Your satellite tracking list
Your tracking list is empty




NASA's NSSDC Master Catalog

Two Line Element Set (TLE):
1 30903U 99025AYR 18112.56796406  .00000302  00000-0  24110-3 0  9992
2 30903  99.3721 241.5113 0098197  95.1724 266.0653 13.96521990568997
Source of the keplerian elements: AFSPC